Weather History for Nasa Shuttle, FL

Change the Weather History Date:

Thursday, April 18, 2013

  Actual Average Record
Temperature  
Mean Temperature 72 °F -  
Max Temperature 83 °F 76 °F 83 °F (2013)
Min Temperature 62 °F 58 °F 46 °F (2001)
Cooling Degree Days 7    
Growing Degree Days 22 (Base 50)    
Moisture  
Dew Point 66 °F    
Average Humidity 89    
Maximum Humidity 100    
Minimum Humidity 58    
Precipitation  
Precipitation 0.00 in - - ()
Sea Level Pressure  
Sea Level Pressure 30.23 in    
Wind  
Wind Speed 3 mph (SE)    
Max Wind Speed 14 mph    
Max Gust Speed 20 mph    
Visibility 7 miles    
Events Fog    
Averages and records for this station are not official NWS values.
T = Trace of Precipitation, MM = Missing Value Source: NWS Daily Summary

Daily Weather History Graph

Daily Weather History Graph

Search for Another Location

Airport:

Trip Planner

Search our weather history database for the weather conditions in past years. The results will help you decide how hot, cold, wet, or windy it might be!

Date:

Astronomy

Apr. 18, 2013 Rise Set
Actual Time 6:53 AM EDT 7:50 PM EDT
Civil Twilight 6:29 AM EDT 8:14 PM EDT
Nautical Twilight 6:00 AM EDT 8:43 PM EDT
Astronomical Twilight 5:31 AM EDT 9:13 PM EDT
Moon 1:09 PM EDT (4/18) 1:57 AM EDT (4/18)
Length of Visible Light 13h 45m
Length of Day
12h 56m
First Quarter, 51% of the Moon is Illuminated
Apr 18
First Quarter
Apr 25
Full
May 2
Last Quarter
May 9
New
May 18
First Quarter

Hourly Weather History & Observations

Time (EDT) Temp. Heat Index Dew Point Humidity Pressure Visibility Wind Dir Wind Speed Gust Speed Precip Events Conditions
12:58 AM 65.7 °F - 65.5 °F 99% 30.41 in 10.0 mi ENE 2.3 mph - N/A   Clear
1:53 AM 68.0 °F - 68.0 °F 100% 30.06 in 10.0 mi Calm Calm - N/A   Mostly Cloudy
1:58 AM 68.2 °F - 67.8 °F 99% 30.39 in 10.0 mi Calm Calm - N/A   Mostly Cloudy
2:03 AM 68.0 °F - 68.0 °F 100% 30.05 in 10.0 mi ENE 2.3 mph - N/A   Scattered Clouds
2:08 AM 66.2 °F - 66.2 °F 100% 30.05 in 10.0 mi ENE 1.2 mph - N/A   Mostly Cloudy
2:18 AM 66.2 °F - 66.2 °F 100% 30.05 in 10.0 mi Calm Calm - N/A   Mostly Cloudy
2:58 AM 65.8 °F - 65.5 °F 99% 30.37 in 10.0 mi Calm Calm - N/A   Clear
3:58 AM 65.1 °F - 64.8 °F 99% 30.35 in 4.0 mi East 3.5 mph - N/A   Clear
4:03 AM 64.4 °F - 64.4 °F 100% 30.02 in 1.5 mi East 4.6 mph - N/A   Clear
4:18 AM 64.4 °F - 64.4 °F 100% 30.02 in 1.0 mi Calm Calm - N/A   Clear
4:23 AM 64.4 °F - 64.4 °F 100% 30.02 in 1.2 mi Calm Calm - N/A   Clear
4:28 AM 64.4 °F - 64.4 °F 100% 30.02 in 6.0 mi Calm Calm - N/A   Clear
4:58 AM 64.2 °F - 63.9 °F 99% 30.36 in 10.0 mi Calm Calm - N/A   Clear
5:38 AM 64.4 °F - 64.4 °F 100% 30.03 in 10.0 mi West 1.2 mph - N/A   Mostly Cloudy
5:43 AM 64.4 °F - 64.4 °F 100% 30.03 in 10.0 mi Calm Calm - N/A   Scattered Clouds
5:58 AM 63.5 °F - 63.5 °F 100% 30.36 in 10.0 mi Calm Calm - N/A   Scattered Clouds
6:18 AM 64.4 °F - 64.4 °F 100% 30.03 in 2.0 mi Calm Calm - N/A   Clear
6:23 AM 62.6 °F - 62.6 °F 100% 30.03 in 1.2 mi Calm Calm - N/A   Clear
6:33 AM 64.4 °F - 64.4 °F 100% 30.04 in 1.5 mi Calm Calm - N/A   Clear
6:38 AM 64.4 °F - 64.4 °F 100% 30.04 in 1.0 mi ENE 1.2 mph - N/A   Clear
6:43 AM 64.4 °F - 64.4 °F 100% 30.04 in 0.5 mi ESE 2.3 mph - N/A Fog Fog
6:58 AM 62.6 °F - 62.6 °F 100% 30.38 in 3.0 mi Calm Calm - N/A   Clear
7:23 AM 62.6 °F - 62.6 °F 100% 30.05 in 2.0 mi Calm Calm - N/A   Clear
7:28 AM 62.6 °F - 62.6 °F 100% 30.06 in 1.8 mi Calm Calm - N/A   Clear
7:33 AM 64.4 °F - 64.4 °F 100% 30.06 in 5.0 mi SE 1.2 mph - N/A   Clear
7:58 AM 66.7 °F - 66.7 °F 100% 30.39 in 10.0 mi Calm Calm - N/A   Clear
8:58 AM 74.7 °F - 72.7 °F 94% 30.39 in 10.0 mi SE 5.8 mph - N/A   Clear
9:58 AM 77.9 °F - 66.6 °F 68% 30.41 in 10.0 mi South 6.9 mph - N/A   Scattered Clouds
10:58 AM 80.1 °F 81.8 °F 64.6 °F 59% 30.41 in 10.0 mi South 8.1 mph - N/A   Clear
11:58 AM 81.5 °F 83.6 °F 65.8 °F 59% 30.40 in 10.0 mi SE 5.8 mph - N/A   Partly Cloudy
12:58 PM 81.9 °F 83.9 °F 65.7 °F 58% 30.39 in 10.0 mi SE 9.2 mph - N/A   Mostly Cloudy
1:58 PM 82.6 °F 85.3 °F 67.5 °F 60% 30.38 in 10.0 mi SE 13.8 mph - N/A   Mostly Cloudy
2:58 PM 82.4 °F 85.2 °F 67.6 °F 61% 30.36 in 10.0 mi SE 9.2 mph 17.3 mph N/A   Mostly Cloudy
3:58 PM 82.6 °F 85.5 °F 68.0 °F 61% 30.35 in 10.0 mi ESE 11.5 mph 18.4 mph N/A   Partly Cloudy
4:58 PM 81.9 °F 85.2 °F 69.1 °F 65% 30.34 in 10.0 mi SE 12.7 mph 17.3 mph N/A   Clear
5:58 PM 80.8 °F 84.2 °F 70.0 °F 70% 30.34 in 10.0 mi SE 12.7 mph 19.6 mph N/A   Partly Cloudy
6:58 PM 78.8 °F - 70.3 °F 75% 30.34 in 10.0 mi SE 9.2 mph 16.1 mph N/A   Clear
7:58 PM 76.8 °F - 70.3 °F 80% 30.33 in 10.0 mi SSE 9.2 mph - N/A   Clear
8:58 PM 76.3 °F - 69.8 °F 80% 30.35 in 10.0 mi SE 9.2 mph - N/A   Clear
9:58 PM 76.3 °F - 70.5 °F 82% 30.36 in 10.0 mi SSE 10.4 mph - N/A   Partly Cloudy
10:58 PM 76.5 °F - 71.4 °F 84% 30.36 in 10.0 mi SSE 8.1 mph - N/A   Scattered Clouds
11:58 PM 76.8 °F - 71.1 °F 82% 30.37 in 10.0 mi SSE 8.1 mph - N/A   Mostly Cloudy